TimeEDT,TemperatureF,Dew PointF,Humidity,Sea Level PressureIn,VisibilityMPH,Wind Direction,Wind SpeedMPH,Gust SpeedMPH,PrecipitationIn,Events,Conditions,WindDirDegrees,DateUTC
12:58 AM,67.8,67.1,98,30.03,10.0,Calm,Calm,-,N/A,,Clear,0,2013-06-25 04:58:00
1:58 AM,66.9,66.6,99,30.02,10.0,Calm,Calm,-,N/A,,Clear,0,2013-06-25 05:58:00
2:58 AM,65.7,65.5,99,30.01,10.0,Calm,Calm,-,N/A,,Clear,0,2013-06-25 06:58:00
3:58 AM,64.9,64.6,99,29.99,8.0,Calm,Calm,-,N/A,,Clear,0,2013-06-25 07:58:00
4:58 AM,64.8,64.4,99,29.99,8.0,Calm,Calm,-,N/A,,Clear,0,2013-06-25 08:58:00
5:58 AM,64.6,64.6,100,30.00,6.0,Calm,Calm,-,N/A,,Clear,0,2013-06-25 09:58:00
6:31 AM,66.2,64.4,94,30.00,5.0,Calm,Calm,-,N/A,Rain,Light Rain,0,2013-06-25 10:31:00
6:34 AM,66.2,66.2,100,30.00,4.0,Calm,Calm,-,N/A,,Clear,0,2013-06-25 10:34:00
6:35 AM,66.2,66.2,100,30.00,4.0,Calm,Calm,-,N/A,Rain,Light Rain,0,2013-06-25 10:35:00
6:41 AM,66.2,66.2,100,30.00,7.0,Calm,Calm,-,N/A,,Clear,0,2013-06-25 10:41:00
6:58 AM,67.8,67.6,99,30.00,9.0,Calm,Calm,-,0.00,,Clear,0,2013-06-25 10:58:00
7:07 AM,68.0,68.0,100,30.01,9.0,Calm,Calm,-,N/A,Rain,Light Rain,0,2013-06-25 11:07:00
7:22 AM,69.8,68.0,94,30.00,10.0,Calm,Calm,-,N/A,,Clear,0,2013-06-25 11:22:00
7:58 AM,72.9,68.7,87,30.00,10.0,Calm,Calm,-,N/A,,Clear,0,2013-06-25 11:58:00
8:58 AM,78.4,69.6,74,30.01,10.0,WSW,5.8,-,N/A,,Clear,240,2013-06-25 12:58:00
9:56 AM,84.2,69.8,62,30.00,10.0,WSW,5.8,-,N/A,,Clear,250,2013-06-25 13:56:00
10:56 AM,86.0,68.0,55,30.01,10.0,West,10.4,-,N/A,,Clear,280,2013-06-25 14:56:00
11:58 AM,88.0,68.2,52,29.98,10.0,WSW,10.4,17.3,N/A,,Clear,250,2013-06-25 15:58:00
12:58 PM,89.2,63.7,42,29.97,10.0,NW,10.4,21.9,N/A,,Partly Cloudy,320,2013-06-25 16:58:00
1:58 PM,91.2,63.1,39,29.95,10.0,WNW,8.1,19.6,N/A,,Scattered Clouds,290,2013-06-25 17:58:00
2:43 PM,89.6,64.4,43,29.96,10.0,West,15.0,21.9,N/A,Thunderstorm,Scattered Clouds,270,2013-06-25 18:43:00
2:44 PM,89.6,64.4,43,29.97,10.0,NW,19.6,36.8,N/A,Thunderstorm,Scattered Clouds,320,2013-06-25 18:44:00
2:47 PM,87.8,64.4,46,29.99,10.0,NW,18.4,36.8,N/A,Thunderstorm,Light Drizzle,320,2013-06-25 18:47:00
2:54 PM,78.8,64.4,61,30.00,8.0,WNW,18.4,36.8,N/A,Rain-Thunderstorm,Light Thunderstorms and Rain,290,2013-06-25 18:54:00
2:58 PM,77.0,64.4,65,30.00,5.0,NW,16.1,31.1,0.00,Rain-Thunderstorm,Thunderstorms and Rain,310,2013-06-25 18:58:00
3:00 PM,75.2,66.2,73,30.00,2.0,NW,13.8,31.1,N/A,Rain-Thunderstorm,Heavy Thunderstorms and Rain,310,2013-06-25 19:00:00
3:02 PM,73.4,66.2,78,30.00,1.8,NW,11.5,31.1,N/A,Rain-Thunderstorm,Heavy Thunderstorms and Rain,310,2013-06-25 19:02:00
3:04 PM,71.6,66.2,83,30.00,1.2,NW,11.5,31.1,N/A,Rain-Thunderstorm,Heavy Thunderstorms and Rain,320,2013-06-25 19:04:00
3:06 PM,71.6,66.2,83,29.99,1.0,NW,10.4,26.5,N/A,Rain-Thunderstorm,Heavy Thunderstorms and Rain,320,2013-06-25 19:06:00
3:10 PM,69.8,66.2,88,29.98,1.2,NNW,8.1,23.0,N/A,Rain-Thunderstorm,Heavy Thunderstorms and Rain,330,2013-06-25 19:10:00
3:12 PM,69.8,66.2,88,29.98,1.5,NNW,9.2,17.3,N/A,Rain-Thunderstorm,Heavy Thunderstorms and Rain,330,2013-06-25 19:12:00
3:14 PM,71.6,66.2,83,29.98,2.5,NW,8.1,17.3,N/A,Rain-Thunderstorm,Thunderstorms and Rain,320,2013-06-25 19:14:00
3:16 PM,71.6,66.2,83,29.98,4.0,NW,9.2,-,N/A,Rain-Thunderstorm,Light Thunderstorms and Rain,320,2013-06-25 19:16:00
3:20 PM,71.6,66.2,83,29.97,10.0,NW,8.1,-,N/A,Thunderstorm,Thunderstorm,320,2013-06-25 19:20:00
3:22 PM,71.6,68.0,88,29.97,10.0,NNW,8.1,-,N/A,,Mostly Cloudy,330,2013-06-25 19:22:00
3:58 PM,78.4,69.6,74,29.95,10.0,Variable,2.3,-,0.34,,Scattered Clouds,0,2013-06-25 19:58:00
4:58 PM,79.9,67.6,66,29.91,10.0,Variable,3.5,-,N/A,,Clear,0,2013-06-25 20:58:00
5:58 PM,83.5,67.5,58,29.88,10.0,West,2.3,-,N/A,,Clear,260,2013-06-25 21:58:00
6:58 PM,84.2,70.0,62,29.87,10.0,Calm,Calm,-,N/A,,Clear,0,2013-06-25 22:58:00
7:58 PM,78.4,73.0,83,29.88,10.0,Calm,Calm,-,N/A,,Clear,0,2013-06-25 23:58:00
8:58 PM,75.7,73.6,93,29.88,10.0,Calm,Calm,-,N/A,,Mostly Cloudy,0,2013-06-26 00:58:00
9:14 PM,77.0,69.8,78,29.94,10.0,WNW,24.2,41.4,N/A,Rain,Light Rain,290,2013-06-26 01:14:00
9:22 PM,73.4,68.0,83,29.95,2.0,WNW,15.0,41.4,N/A,Rain-Thunderstorm,Heavy Rain,300,2013-06-26 01:22:00
9:31 PM,69.8,66.2,88,29.96,3.0,West,17.3,33.4,N/A,Rain-Thunderstorm,Light Thunderstorms and Rain,280,2013-06-26 01:31:00
9:35 PM,69.8,66.2,88,29.95,2.5,West,18.4,33.4,N/A,Rain-Thunderstorm,Heavy Thunderstorms and Rain,270,2013-06-26 01:35:00
9:47 PM,69.8,64.4,83,29.92,3.0,West,16.1,25.3,N/A,Rain-Thunderstorm,Heavy Thunderstorms and Rain,280,2013-06-26 01:47:00
9:56 PM,69.8,64.4,83,29.93,10.0,SW,12.7,24.2,N/A,Rain,Light Rain,220,2013-06-26 01:56:00
9:58 PM,69.8,64.4,83,29.93,10.0,SW,13.8,24.2,0.43,Rain,Light Rain,220,2013-06-26 01:58:00
10:04 PM,69.8,66.2,88,29.93,10.0,SW,12.7,-,N/A,,Mostly Cloudy,220,2013-06-26 02:04:00
10:58 PM,70.0,65.5,86,29.91,10.0,SSE,4.6,-,0.00,,Mostly Cloudy,160,2013-06-26 02:58:00
11:58 PM,67.6,67.5,99,29.91,10.0,SSW,5.8,-,N/A,,Mostly Cloudy,210,2013-06-26 03:58:00